DW8052 Weather Reports


time (UTC)temp
F
wind
direction
speed
knots
gust
knots
rain 1hr
in
rain 24hr
in
rain mn
in
humidity
%
barometer
mb
20260901061220 69 35 7.8 10.4 0.00 0.00 0.00 61 1018.5
20260901060720 68 39 10.4 11.3 0.00 0.00 0.00 64 1018.6
20260901055720 68 49 8.7 10.4 0.00 0.00 0.00 66 1018.7
20260901055220 68 48 7.8 10.4 0.00 0.00 0.00 66 1018.7
20260901054720 67 39 7.8 8.7 0.00 0.00 0.00 67 1018.8
20260901054220 67 44 10.4 12.2 0.00 0.00 0.00 69 1018.7
20260901053719 67 51 9.6 11.3 0.00 0.00 0.00 69 1018.9
20260901052720 67 46 7.8 13.9 0.00 0.00 0.00 68 1018.9
20260901052220 67 50 10.4 13.0 0.00 0.00 0.00 68 1019.0
20260901051719 67 46 10.4 12.2 0.00 0.00 0.00 68 1019.2
20260901051220 67 49 11.3 14.8 0.00 0.00 0.00 67 1019.2
20260901050720 67 47 12.2 13.9 0.00 0.00 0.00 67 1019.1
20260901050219 67 46 12.2 14.8 0.00 0.00 0.00 66 1019.0
20260901045720 67 45 12.2 13.9 0.00 0.00 0.00 66 1019.0
20260901045220 67 51 12.2 14.8 0.00 0.00 0.00 65 1019.3
20260901044720 67 46 11.3 13.9 0.00 0.00 0.00 65 1019.2
20260901044219 67 51 12.2 14.8 0.00 0.00 0.00 64 1019.3
20260901043719 67 46 12.2 13.0 0.00 0.00 0.00 63 1019.2
20260901043220 67 45 11.3 13.9 0.00 0.00 0.00 65 1019.5
20260901042220 67 46 11.3 14.8 0.00 0.00 0.00 66 1019.5
20260901041719 67 43 12.2 14.8 0.00 0.00 0.00 66 1019.7
20260901041220 67 48 10.4 13.9 0.00 0.00 0.00 66 1019.6
20260901040719 67 48 12.2 14.8 0.00 0.00 0.00 66 1019.8
20260901035720 67 43 11.3 14.8 0.00 0.00 0.00 64 1019.9
20260901035219 66 44 12.2 15.6 0.00 0.00 0.00 66 1019.9
20260901034719 66 51 11.3 15.6 0.00 0.00 0.00 67 1020.0
20260901033719 67 51 12.2 14.8 0.00 0.00 0.00 66 1020.3
20260901033219 67 51 10.4 13.9 0.00 0.00 0.00 66 1020.4
20260901032719 67 47 12.2 14.8 0.00 0.00 0.00 64 1020.4
20260901032220 67 53 13.0 13.9 0.00 0.00 0.00 64 1020.4
20260901031719 67 52 11.3 13.0 0.00 0.00 0.00 63 1020.5
20260901031219 67 58 12.2 13.0 0.00 0.00 0.00 64 1020.6
20260901030720 67 53 8.7 13.0 0.00 0.00 0.00 64 1020.6
20260901025719 67 49 8.7 11.3 0.00 0.00 0.00 63 1020.9
20260901024719 69 67 10.4 11.3 0.00 0.00 0.00 60 1021.1
20260901023219 72 76 6.1 8.7 0.00 0.00 0.00 52 1021.6
20260901022719 72 84 5.2 6.1 0.00 0.00 0.00 49 1021.7
20260901022219 72 82 5.2 7.0 0.00 0.00 0.00 49 1021.9
20260901021719 73 82 4.3 6.1 0.00 0.00 0.00 41 1022.0
20260901021219 73 40 0.9 2.6 0.00 0.00 0.00 45 1022.1
20260901020719 74 69 3.5 5.2 0.00 0.00 0.00 40 1022.1
20260901020219 73 80 0.9 2.6 0.00 0.00 0.00 42 1022.6
20260901015720 73 39 1.7 4.3 0.00 0.00 0.00 41 1022.6
20260901015219 72 64 1.7 7.0 0.00 0.00 0.00 43 1023.0
20260901014719 72 345 2.6 6.1 0.00 0.00 0.00 42 1022.8
20260901014219 72 2 2.6 7.0 0.00 0.00 0.00 42 1023.0
20260901013719 72 13 2.6 6.1 0.00 0.00 0.00 42 1023.2
20260901013219 72 1 1.7 5.2 0.00 0.00 0.00 42 1023.4
20260901012719 71 335 0.9 4.3 0.00 0.00 0.00 44 1023.4
20260901012219 70 324 1.7 5.2 0.00 0.00 0.00 45 1023.8
20260901011720 70 320 1.7 6.1 0.00 0.00 0.00 46 1023.6
20260901011219 70 0 5.2 7.0 0.00 0.00 0.00 44 1023.8
20260901010719 70 326 3.5 6.1 0.00 0.00 0.00 46 1023.9
20260901010219 70 326 3.5 7.0 0.00 0.00 0.00 47 1024.1
20260901005719 69 317 4.3 6.1 0.00 0.00 0.00 49 1024.2
20260901005219 68 326 2.6 4.3 0.00 0.00 0.00 49 1024.4
20260901004719 68 343 2.6 6.1 0.00 0.00 0.00 50 1024.4
20260901004220 67 3 2.6 6.1 0.00 0.00 0.00 51 1024.8
20260901003719 67 335 3.5 7.8 0.00 0.00 0.00 52 1024.7
20260901003219 66 354 5.2 8.7 0.00 0.00 0.00 53 1024.9
20260901002719 66 343 4.3 7.0 0.00 0.00 0.00 54 1025.0
20260901002219 65 346 5.2 7.8 0.00 0.00 0.00 56 1025.0
20260901001719 65 327 4.3 7.8 0.00 0.00 0.00 58 1025.1
20260901001219 64 339 7.0 7.8 0.00 0.00 0.00 58 1025.4
20260901000719 65 344 6.1 10.4 0.00 0.00 0.00 59 1025.5
20260901000219 64 353 4.3 10.4 0.00 0.00 0.00 61 1025.3
20260831235219 63 333 7.0 10.4 0.00 0.00 0.00 62 1025.5
20260831234719 63 338 5.2 10.4 0.00 0.00 0.00 63 1025.7
20260831234219 62 350 7.0 11.3 0.00 0.00 0.00 63 1025.6
20260831233719 62 323 6.1 10.4 0.00 0.00 0.00 65 1025.7
20260831233219 61 343 6.1 10.4 0.00 0.00 0.00 65 1026.0
20260831232219 61 344 8.7 10.4 0.00 0.00 0.00 67 1026.2
20260831231218 60 337 7.8 10.4 0.00 0.00 0.00 69 1026.1
20260831230719 60 323 7.8 11.3 0.00 0.00 0.00 69 1026.2
20260831225719 59 337 5.2 8.7 0.00 0.00 0.00 71 1026.2
20260831225219 59 328 7.8 10.4 0.00 0.00 0.00 71 1026.4
20260831224219 58 329 8.7 11.3 0.00 0.00 0.00 73 1026.6
20260831223719 58 328 8.7 12.2 0.00 0.00 0.00 73 1026.5
20260831223219 58 324 10.4 12.2 0.00 0.00 0.00 73 1026.5
20260831222219 57 323 9.6 13.9 0.00 0.00 0.00 75 1026.8
20260831221219 56 320 10.4 12.2 0.00 0.00 0.00 77 1026.7
20260831220719 56 325 9.6 11.3 0.00 0.00 0.00 78 1026.8
20260831214719 55 324 10.4 12.2 0.00 0.00 0.00 81 1027.0
20260831214218 55 325 7.8 10.4 0.00 0.00 0.00 83 1026.9
20260831212719 54 320 8.7 11.3 0.00 0.00 0.00 85 1026.9
20260831212219 53 320 9.6 12.2 0.00 0.00 0.00 87 1026.9
20260831211719 53 320 10.4 11.3 0.00 0.00 0.00 87 1026.9
20260831211219 53 322 8.7 11.3 0.00 0.00 0.00 87 1026.7
20260831210719 53 325 9.6 11.3 0.00 0.00 0.00 89 1026.6
20260831210218 52 328 8.7 10.4 0.00 0.00 0.00 89 1026.6
20260831205719 52 332 9.6 11.3 0.00 0.00 0.00 89 1026.7
20260831205218 52 334 10.4 11.3 0.00 0.00 0.00 90 1026.5
20260831204719 52 332 9.6 12.2 0.00 0.00 0.00 90 1026.9
20260831204219 52 330 9.6 12.2 0.00 0.00 0.00 90 1026.5
20260831203719 52 331 8.7 10.4 0.00 0.00 0.00 90 1026.7
20260831203218 52 334 8.7 10.4 0.00 0.00 0.00 90 1026.5
20260831202719 52 338 8.7 10.4 0.00 0.00 0.00 90 1026.4
20260831201719 52 340 7.8 10.4 0.00 0.00 0.00 90 1026.3
20260831201219 52 343 7.8 10.4 0.00 0.00 0.00 89 1026.3
20260831200718 52 344 8.7 10.4 0.00 0.00 0.00 89 1026.5
20260831200219 52 342 7.8 10.4 0.00 0.00 0.00 89 1026.3
20260831195719 52 340 7.8 10.4 0.00 0.00 0.00 89 1026.4
20260831195219 52 336 7.8 11.3 0.00 0.00 0.00 89 1026.3
20260831194719 52 332 9.6 11.3 0.00 0.00 0.00 88 1026.5
20260831194219 52 330 10.4 12.2 0.00 0.00 0.00 88 1026.4
20260831193718 53 332 10.4 12.2 0.00 0.00 0.00 88 1026.4
20260831193218 53 331 10.4 12.2 0.00 0.00 0.00 88 1026.3
20260831192719 53 331 10.4 12.2 0.00 0.00 0.00 88 1026.4
20260831192218 53 334 10.4 11.3 0.00 0.00 0.00 88 1026.5
20260831191718 53 332 8.7 11.3 0.00 0.01 0.00 87 1026.5
20260831191218 53 331 9.6 11.3 0.00 0.01 0.00 87 1026.5
20260831190718 53 330 9.6 10.4 0.00 0.01 0.00 87 1026.3
20260831190219 53 326 8.7 10.4 0.00 0.01 0.00 86 1026.4
20260831185219 53 321 8.7 10.4 0.00 0.01 0.00 86 1026.6
20260831184719 53 324 8.7 10.4 0.00 0.01 0.00 86 1026.5
20260831184219 54 325 8.7 10.4 0.00 0.01 0.00 85 1026.6
20260831183718 54 320 8.7 10.4 0.00 0.01 0.00 85 1026.3
20260831183219 54 323 8.7 10.4 0.00 0.01 0.00 85 1026.2
20260831182718 54 326 8.7 10.4 0.00 0.01 0.00 85 1026.2
20260831182218 54 321 10.4 10.4 0.00 0.01 0.00 84 1026.4
20260831181718 54 319 10.4 10.4 0.00 0.01 0.00 84 1026.4
20260831181219 54 316 10.4 11.3 0.00 0.01 0.00 84 1026.5
20260831180718 54 315 11.3 11.3 0.00 0.01 0.00 84 1026.5
20260831180218 54 314 10.4 11.3 0.00 0.01 0.00 83 1026.5
20260831175718 55 317 11.3 11.3 0.00 0.01 0.00 83 1026.3
20260831175218 55 317 11.3 11.3 0.00 0.01 0.00 82 1026.4
20260831174718 55 321 10.4 12.2 0.00 0.01 0.00 82 1026.4
20260831173719 55 315 11.3 12.2 0.00 0.01 0.00 80 1026.4
20260831173219 56 319 11.3 12.2 0.00 0.01 0.00 80 1026.5
20260831172718 56 317 12.2 12.2 0.00 0.01 0.00 80 1026.5
20260831172218 56 314 11.3 11.3 0.00 0.01 0.00 79 1026.5
20260831171719 57 314 11.3 11.3 0.00 0.01 0.00 80 1026.6
20260831171218 57 314 11.3 11.3 0.00 0.01 0.00 80 1026.5
20260831170719 57 315 11.3 11.3 0.00 0.01 0.00 80 1026.6
20260831170218 57 313 10.4 11.3 0.00 0.01 0.00 79 1026.6
20260831165718 57 313 10.4 11.3 0.00 0.01 0.00 79 1026.6
20260831165218 57 311 10.4 11.3 0.00 0.01 0.00 79 1026.7
20260831164719 57 312 10.4 10.4 0.00 0.01 0.00 79 1026.7
20260831164218 57 308 10.4 11.3 0.00 0.01 0.00 79 1027.0
20260831163718 57 312 10.4 10.4 0.00 0.01 0.00 79 1027.0
20260831163218 57 316 10.4 10.4 0.00 0.01 0.00 79 1026.9
20260831162218 57 321 8.7 10.4 0.00 0.01 0.00 78 1027.2
20260831161718 57 324 8.7 8.7 0.00 0.01 0.00 78 1027.1
20260831161218 57 324 8.7 10.4 0.00 0.01 0.00 77 1027.4
20260831160718 57 324 7.8 8.7 0.00 0.01 0.00 77 1027.6
20260831160218 57 324 7.8 8.7 0.00 0.01 0.00 77 1027.5
20260831155718 57 325 7.8 8.7 0.00 0.01 0.00 76 1027.5
20260831155218 57 326 7.8 8.7 0.00 0.01 0.00 76 1027.6
20260831154718 57 328 7.8 8.7 0.00 0.01 0.00 75 1027.6
20260831153718 58 327 7.8 7.8 0.00 0.01 0.00 75 1027.8
20260831153218 58 327 7.8 8.7 0.00 0.01 0.00 74 1027.9
20260831152718 58 326 7.8 7.8 0.00 0.01 0.00 73 1027.9
20260831152218 58 329 7.8 8.7 0.00 0.01 0.00 72 1027.9
20260831151218 58 329 7.0 7.8 0.00 0.01 0.00 72 1028.2
20260831150718 58 333 7.0 7.8 0.00 0.01 0.00 72 1028.2
20260831150218 58 329 7.0 7.8 0.00 0.01 0.00 72 1028.2
20260831145718 58 325 7.8 7.8 0.00 0.01 0.00 72 1028.4
20260831145218 58 323 7.0 7.8 0.00 0.01 0.00 72 1028.2
20260831144718 58 319 7.0 7.8 0.00 0.01 0.00 72 1028.3
20260831144217 59 318 6.1 7.0 0.00 0.01 0.00 71 1028.3
20260831143718 59 322 6.1 7.0 0.00 0.01 0.00 71 1028.3
20260831143218 59 322 7.0 7.0 0.00 0.01 0.00 71 1028.3
20260831142728 59 318 7.0 7.8 0.00 0.01 0.00 71 1028.5
20260831141718 59 318 7.0 7.0 0.00 0.01 0.00 71 1028.5
20260831141217 59 317 6.1 7.0 0.00 0.01 0.00 71 1028.5
20260831140718 59 312 6.1 6.1 0.00 0.01 0.00 70 1028.6
20260831140218 60 320 6.1 6.1 0.00 0.01 0.00 69 1028.7
20260831134718 60 338 6.1 6.1 0.00 0.01 0.01 69 1028.6
20260831134218 60 338 5.2 6.1 0.00 0.01 0.01 69 1028.8
20260831133718 60 338 5.2 6.1 0.00 0.01 0.01 69 1028.7
20260831133218 60 338 5.2 6.1 0.00 0.01 0.01 69 1028.7
20260831132718 60 338 5.2 6.1 0.00 0.01 0.01 68 1028.7
20260831132218 60 337 5.2 6.1 0.00 0.01 0.01 69 1028.8
20260831131718 60 337 5.2 7.0 0.00 0.01 0.01 68 1028.9
20260831131217 60 340 6.1 7.8 0.00 0.01 0.01 69 1028.9
20260831130718 60 343 6.1 7.8 0.00 0.01 0.01 69 1029.1
20260831130218 60 337 6.1 7.0 0.00 0.01 0.01 69 1029.2
20260831125218 60 334 7.0 7.8 0.00 0.01 0.01 69 1029.1
20260831124217 61 332 6.1 7.8 0.00 0.01 0.01 70 1029.1
20260831123717 61 335 6.1 7.8 0.00 0.01 0.01 69 1029.3
20260831123218 61 332 6.1 7.0 0.00 0.01 0.01 69 1029.2
20260831122717 61 338 6.1 8.7 0.00 0.01 0.01 69 1029.2
20260831122218 60 340 7.0 7.8 0.00 0.01 0.01 69 1029.2
20260831121718 60 336 7.0 7.8 0.00 0.01 0.01 70 1029.4
20260831121217 60 322 6.1 7.0 0.00 0.01 0.01 71 1029.3
20260831115718 60 304 5.2 6.1 0.00 0.01 0.01 77 1029.3
20260831115217 60 297 4.3 6.1 0.00 0.01 0.01 78 1029.5
20260831114718 60 287 4.3 5.2 0.00 0.01 0.01 79 1029.6
20260831113717 61 291 4.3 4.3 0.00 0.01 0.01 78 1029.6
20260831113217 61 333 2.6 2.6 0.00 0.01 0.01 78 1029.6
20260831112218 61 339 4.3 5.2 0.00 0.01 0.01 77 1029.4
20260831111718 61 348 4.3 6.1 0.00 0.01 0.01 77 1029.5
20260831110717 62 1 7.0 8.7 0.00 0.01 0.01 77 1029.6
20260831110218 62 1 7.8 8.7 0.00 0.01 0.01 77 1029.6
20260831105718 62 1 7.8 10.4 0.00 0.01 0.01 77 1029.7
20260831105217 62 3 7.8 10.4 0.00 0.01 0.01 78 1029.5
20260831104217 62 1 7.8 10.4 0.00 0.01 0.01 79 1029.6
20260831103717 62 2 7.8 10.4 0.00 0.01 0.01 80 1029.7
20260831103217 62 1 7.8 8.7 0.00 0.01 0.01 80 1029.6
20260831102717 62 3 7.8 10.4 0.00 0.01 0.01 80 1029.9
20260831102217 62 4 7.0 8.7 0.00 0.01 0.01 81 1029.5
20260831101717 61 2 6.1 8.7 0.00 0.01 0.01 81 1029.7
20260831101217 61 1 6.1 7.8 0.00 0.01 0.01 81 1029.6
20260831100217 62 8 5.2 7.8 0.00 0.01 0.01 81 1029.6
20260831095717 62 1 6.1 7.8 0.00 0.01 0.01 81 1029.7
20260831095217 62 1 7.0 10.4 0.00 0.01 0.01 81 1029.6
20260831094717 62 3 6.1 7.8 0.00 0.01 0.01 81 1029.6
20260831094217 62 3 7.8 10.4 0.00 0.01 0.01 81 1029.4
20260831093717 62 0 6.1 8.7 0.00 0.01 0.01 81 1029.6
20260831093217 62 0 5.2 7.0 0.00 0.01 0.01 80 1029.5
20260831092717 62 11 5.2 7.8 0.00 0.01 0.01 80 1029.4
20260831091717 62 12 5.2 8.7 0.00 0.01 0.01 80 1029.4
20260831091217 62 12 6.1 10.4 0.00 0.01 0.01 80 1029.4
20260831085717 62 12 5.2 7.0 0.00 0.01 0.01 79 1029.4
20260831085217 62 18 5.2 7.8 0.00 0.01 0.01 80 1029.2
20260831084717 62 13 5.2 7.8 0.00 0.01 0.01 80 1029.2
20260831083718 62 15 5.2 8.7 0.00 0.01 0.01 80 1029.3
20260831083218 62 16 4.3 7.0 0.00 0.01 0.01 80 1029.4
20260831082717 62 18 6.1 7.8 0.00 0.01 0.01 80 1029.2
20260831082217 62 23 5.2 8.7 0.00 0.01 0.01 80 1029.1
20260831081217 62 25 6.1 7.8 0.00 0.01 0.01 78 1029.1
20260831075717 62 24 6.1 10.4 0.00 0.01 0.01 77 1029.0
20260831075217 62 31 8.7 10.4 0.00 0.01 0.01 76 1029.0
20260831074717 62 34 8.7 11.3 0.00 0.01 0.01 75 1029.0
20260831074217 62 30 7.8 11.3 0.00 0.01 0.01 74 1028.9
20260831073717 63 37 10.4 11.3 0.00 0.01 0.01 73 1029.0
20260831073217 63 42 9.6 10.4 0.00 0.01 0.01 72 1029.0
20260831072717 63 40 8.7 10.4 0.00 0.01 0.01 72 1028.9
20260831072217 63 40 6.1 7.8 0.00 0.01 0.01 72 1029.0
20260831071217 63 50 6.1 10.4 0.00 0.01 0.01 71 1029.0
20260831065717 63 41 10.4 11.3 0.00 0.01 0.01 70 1029.0
20260831065217 63 43 8.7 11.3 0.00 0.01 0.01 71 1028.9
20260831064717 64 39 8.7 11.3 0.00 0.01 0.01 70 1028.9
20260831063716 64 32 10.4 11.3 0.00 0.01 0.01 68 1028.8
20260831062717 64 45 8.7 11.3 0.00 0.01 0.01 69 1028.7
20260831062217 64 43 8.7 11.3 0.00 0.01 0.01 66 1028.6
20260831061717 64 42 8.7 12.2 0.00 0.01 0.01 66 1028.7